Location: B
(0.0000°N, 0.0000°E)
Time: 10:24:11
(UTC+02:00)

Amateur Radio Satellites - All Passes

Search period start: 24 September 2017 09:54
Search period end: 25 September 2017 09:54
Location: B, 0.0000°N, 0.0000°E

Satellite Date Start Highest point End Downlink Frequencies (MHz)
Time Altitude Azimuth
HO-68 24 Sep 09:58:05 10:03:48 26° 285° (WNW) 10:09:33 435.675
SRMSAT 24 Sep 10:15:52 10:19:24 16° 192° (SSW) 10:22:55 437.500
UWE-3 24 Sep 10:38:21 10:40:41 14° 282° (WNW) 10:43:01 435.000/436.395/437.385
Max Valier Satellite 24 Sep 10:41:20 10:43:27 15° 101° (ESE) 10:45:35 145.860
JUGNU 24 Sep 10:44:12 10:45:32 11° 174° (S) 10:46:53 437.505
DELFI C3 24 Sep 11:15:08 11:19:02 86° 106° (ESE) 11:22:59 145.870
Oscar 11 24 Sep 11:20:44 11:22:37 13° 282° (WNW) 11:24:31 .
FO-29 24 Sep 11:27:48 11:33:53 37° 255° (WSW) 11:39:19 435.910
NO-84 24 Sep 11:37:30 11:41:46 56° 122° (ESE) 11:45:53 435.350 FM
UNISAT 6 24 Sep 11:39:21 11:43:36 75° 258° (WSW) 11:47:52 437.425
EO-88 24 Sep 11:39:28 11:43:05 82° 279° (W) 11:46:43 145.990 - 145.960
TIGRISAT 24 Sep 12:03:14 12:07:09 37° 259° (WSW) 12:11:05 435.000
SRMSAT 24 Sep 12:09:10 12:09:38 10° 183° (S) 12:10:07 437.500
Max Valier Satellite 24 Sep 12:14:51 12:17:00 15° 281° (WNW) 12:19:10 145.860
YUBILEINY 24 Sep 12:26:49 12:34:03 29° 93° (E) 12:41:11 435.215
PRISM 24 Sep 12:29:11 12:32:48 30° 258° (WSW) 12:36:25 437.425
JUGNU 24 Sep 12:31:15 12:35:26 20° 165° (SSE) 12:39:39 437.505
LO-87 24 Sep 12:34:22 12:37:50 45° 101° (ESE) 12:41:19 145.935 - 145.965
AIST 2D 24 Sep 12:38:28 12:41:50 42° 79° (E) 12:45:12 435.315
QB50P2 24 Sep 12:41:53 12:44:23 16° 78° (ENE) 12:46:54 145.880/145.840
NANOSAT C BR1 24 Sep 13:15:26 13:19:16 37° 79° (ENE) 13:23:07 145.865
ESTCUBE 1 24 Sep 13:30:46 13:35:01 45° 282° (WNW) 13:39:18 437.505/2401.250
DUCHIFAT 1 24 Sep 13:43:14 13:47:24 85° 78° (ENE) 13:51:34 145.980
SPROUT 24 Sep 13:52:21 13:56:33 57° 101° (ESE) 14:00:47 437.525
VELOX 1 24 Sep 13:57:20 14:01:30 43° 102° (ESE) 14:05:42 145.980
SRMSAT 24 Sep 13:57:46 14:00:02 12° 172° (S) 14:02:17 437.500
POLYITAN 1 24 Sep 13:58:03 14:01:59 40° 258° (WSW) 14:05:55 437.675
M-CUBED/EXP-1 PRIME 24 Sep 14:02:04 14:06:34 52° 75° (ENE) 14:10:51 437.505
EO-79 24 Sep 14:02:18 14:06:07 35° 258° (WSW) 14:09:55 145.935-145.965
SO-50 24 Sep 14:11:13 14:15:34 45° 292° (WNW) 14:19:52 436.795
O/OREOS (USA 219) 24 Sep 14:14:54 14:19:10 39° 76° (ENE) 14:23:27 437.305
Oscar 19 24 Sep 14:15:30 14:18:47 17° 77° (ENE) 14:22:04 437.125/150
BUGSAT 1 24 Sep 14:16:43 14:20:31 41° 78° (ENE) 14:24:17 437.445
QB50P2 24 Sep 14:16:52 14:19:54 20° 258° (WSW) 14:22:57 145.880/145.840
JUGNU 24 Sep 14:19:06 14:24:49 46° 160° (SSE) 14:30:33 437.505
YUBILEINY 24 Sep 14:22:42 14:30:26 36° 273° (W) 14:38:08 435.215
PCSat 24 Sep 14:39:21 14:44:45 89° 109° (ESE) 14:50:10 145.827
UKube-1 24 Sep 14:56:34 15:00:16 29° 102° (ESE) 15:04:00 .
DX 1 24 Sep 15:04:07 15:08:25 69° 101° (ESE) 15:12:46 434.975-435.025
50 SAT 24 Sep 15:25:09 15:27:57 26° 281° (WNW) 15:30:47 437.505
Gurwin Techsat 1B 24 Sep 15:42:39 15:47:56 67° 257° (WSW) 15:53:11 435.225
SRMSAT 24 Sep 15:45:20 15:50:00 23° 164° (SSE) 15:54:39 437.500
AO-7 24 Sep 15:49:18 15:54:16 17° 73° (ENE) 15:59:11 .
Oscar 19 24 Sep 15:53:22 15:57:49 29° 257° (WSW) 16:02:17 437.125/150
BEESAT 24 Sep 16:02:36 16:05:28 16° 103° (ESE) 16:08:19 436.000
JUGNU 24 Sep 16:07:57 16:13:54 65° 339° (NNW) 16:19:51 437.505
MOZHAYETS 4 24 Sep 16:26:57 16:31:03 33° 102° (ESE) 16:35:10
UKube-1 24 Sep 16:34:43 16:36:01 11° 282° (WNW) 16:37:19 .
CUBESAT XI-V 24 Sep 16:58:27 16:59:08 10° 102° (ESE) 16:59:48 437.345
ITAMSAT 1 24 Sep 16:59:11 17:04:12 52° 77° (ENE) 17:09:12 435.822/435.867
ITUPSAT 1 24 Sep 17:02:01 17:06:49 83° 281° (W) 17:11:37 437.325
RS-15 24 Sep 17:10:55 17:22:15 74° 69° (ENE) 17:33:06 29.354- 29.394
SRMSAT 24 Sep 17:33:33 17:39:26 57° 159° (SSE) 17:45:18 437.500
AO-7 24 Sep 17:38:24 17:46:37 61° 254° (WSW) 17:54:48 .
BEESAT 24 Sep 17:38:59 17:42:56 26° 283° (WNW) 17:46:56 436.000
JUGNU 24 Sep 17:58:16 18:03:08 25° 342° (NNW) 18:08:00 437.505
Tancredo 1 24 Sep 18:02:38 18:05:06 34° 305° (NW) 18:07:35 437.200
MOZHAYETS 4 24 Sep 18:06:30 18:07:55 11° 282° (WNW) 18:09:20
KKS-1 24 Sep 18:18:17 18:22:22 36° 102° (ESE) 18:26:29 437.445
DOVE 4 24 Sep 18:31:04 18:35:34 39° 79° (E) 18:39:47 437.250
CUBESAT XI-V 24 Sep 18:32:03 18:36:12 35° 282° (WNW) 18:40:23 437.345
STARS 24 Sep 18:41:01 18:44:32 23° 102° (ESE) 18:48:04 437.465
BEESAT 3 24 Sep 18:44:43 18:47:52 23° 112° (ESE) 18:51:03 437.485
ISS 24 Sep 18:47:38 18:50:39 35° 126° (SE) 18:53:39 437.550
CUTE-I 24 Sep 18:55:10 18:57:41 13° 77° (ENE) 19:00:13 437.470
XW-2D 24 Sep 19:02:55 19:05:31 18° 79° (ENE) 19:08:06 145.860 - 145.880
XW-2F 24 Sep 19:14:08 19:17:13 23° 79° (ENE) 19:20:16 145.980 - 146.000
XW-2B 24 Sep 19:14:41 19:17:53 25° 79° (ENE) 19:21:04 145.730 - 145.750
SRMSAT 24 Sep 19:22:52 19:28:40 52° 339° (NNW) 19:34:26 437.500
nSIGHT-1 24 Sep 19:25:28 19:28:30 39° 305° (NW) 19:31:31 .
RS-15 24 Sep 19:28:09 19:34:12 16° 247° (WSW) 19:40:12 29.354- 29.394
NUDT-PHONESAT 24 Sep 19:34:23 19:37:46 33° 79° (E) 19:41:10 437.300
XW-2C 24 Sep 19:35:29 19:39:15 58° 79° (E) 19:43:01 145.795 - 145.815
AO-85 24 Sep 19:37:37 19:41:21 31° 113° (ESE) 19:44:54 145.980
LilacSat-2 24 Sep 19:48:42 19:52:32 75° 259° (W) 19:56:23 437.200
JUGNU 24 Sep 19:50:22 19:52:52 13° 350° (N) 19:55:22 437.505
HO-68 24 Sep 20:02:06 20:08:03 29° 75° (ENE) 20:13:57 435.675
KAITUO 1B 24 Sep 20:03:50 20:07:36 69° 259° (W) 20:11:21 145.475/437.950
STARS 24 Sep 20:18:05 20:20:35 15° 282° (WNW) 20:23:06 437.465
STRAND 1 24 Sep 20:21:44 20:25:45 23° 103° (ESE) 20:29:45 437.568
BEESAT 3 24 Sep 20:23:51 20:25:11 11° 293° (WNW) 20:26:30 437.485
CUTE 1.7 + AOD 2 24 Sep 20:27:59 20:32:01 40° 79° (ENE) 20:36:02 437.475
BEESAT 2 24 Sep 20:30:50 20:34:31 40° 292° (WNW) 20:38:15 435.950
CUTE-I 24 Sep 20:32:33 20:37:27 38° 257° (WSW) 20:42:20 437.470
XW-2D 24 Sep 20:37:25 20:39:25 14° 259° (WSW) 20:41:24 145.860 - 145.880
XW-2F 24 Sep 20:50:55 20:51:03 10° 258° (WSW) 20:51:11 145.980 - 146.000
CUBEBUG 2 24 Sep 21:06:17 21:10:24 66° 78° (ENE) 21:14:32 437.445
XW-2A 24 Sep 21:08:22 21:11:39 51° 79° (E) 21:14:57 145.665 - 145.685
UWE-3 24 Sep 21:11:31 21:15:21 36° 78° (ENE) 21:19:13 435.000/436.395/437.385
SRMSAT 24 Sep 21:13:44 21:18:07 21° 344° (NNW) 21:22:29 437.500
SEEDS 24 Sep 21:33:50 21:37:48 38° 259° (WSW) 21:41:44 437.485
HO-68 24 Sep 21:49:21 21:55:27 31° 255° (WSW) 22:01:32 435.675
Oscar 11 24 Sep 21:51:29 21:55:24 34° 78° (ENE) 21:59:19 .
AO-73 24 Sep 21:53:16 21:57:23 57° 79° (E) 22:01:34 145.935
AAUSAT CUBESAT 2 24 Sep 21:53:34 21:57:41 56° 259° (WSW) 22:01:46 437.432
ZACube-1 24 Sep 21:56:37 22:00:49 77° 79° (E) 22:05:05 437.345
STRAND 1 24 Sep 22:00:48 22:04:38 21° 283° (WNW) 22:08:30 437.568
Max Valier Satellite 24 Sep 22:33:40 22:34:17 10° 79° (ENE) 22:34:54 145.860
TIGRISAT 24 Sep 22:41:08 22:43:47 15° 102° (ESE) 22:46:23 435.000
FO-29 24 Sep 22:57:53 23:04:11 76° 282° (WNW) 23:11:21 435.910
PRISM 24 Sep 22:59:43 23:00:06 10° 103° (ESE) 23:00:29 437.425
SRMSAT 24 Sep 23:06:28 23:08:06 11° 353° (N) 23:09:45 437.500
DELFI C3 24 Sep 23:13:09 23:17:09 80° 80° (E) 23:21:06 145.870
NO-84 24 Sep 23:21:42 23:24:16 31° 59° (ENE) 23:26:56 435.350 FM
EO-88 24 Sep 23:29:02 23:32:39 64° 79° (E) 23:36:17 145.990 - 145.960
JUGNU 24 Sep 23:30:07 23:33:09 14° 11° (NNE) 23:36:10 437.505
UNISAT 6 24 Sep 23:52:17 23:56:48 49° 282° (WNW) 00:01:19 437.425
Max Valier Satellite 25 Sep 00:05:02 00:07:50 21° 259° (WSW) 00:10:38 145.860
ESTCUBE 1 25 Sep 00:10:39 00:12:32 12° 78° (ENE) 00:14:24 437.505/2401.250
TIGRISAT 25 Sep 00:16:15 00:20:10 27° 282° (WNW) 00:24:05 435.000
LO-87 25 Sep 00:22:35 00:25:37 27° 79° (ENE) 00:28:37 145.935 - 145.965
AIST 2D 25 Sep 00:24:43 00:27:34 24° 101° (E) 00:30:24 435.315
PRISM 25 Sep 00:31:38 00:35:05 27° 282° (WNW) 00:38:35 437.425
EO-79 25 Sep 00:35:33 00:36:32 11° 102° (ESE) 00:37:30 145.935-145.965
SO-50 25 Sep 00:44:54 00:47:46 16° 68° (ENE) 00:50:40 436.795
QB50P2 25 Sep 00:47:25 00:50:30 20° 102° (ESE) 00:53:35 145.880/145.840
YUBILEINY 25 Sep 00:58:49 01:07:21 57° 87° (E) 01:15:56 435.215
JUGNU 25 Sep 01:17:38 01:22:44 30° 19° (NNE) 01:27:49 437.505
NANOSAT C BR1 25 Sep 01:20:42 01:24:47 45° 102° (ESE) 01:28:51 145.865
PCSat 25 Sep 01:34:07 01:37:45 18° 70° (ENE) 01:41:22 145.827
ESTCUBE 1 25 Sep 01:45:06 01:49:03 29° 258° (WSW) 01:52:59 437.505/2401.250
DUCHIFAT 1 25 Sep 01:48:20 01:52:34 80° 284° (WNW) 01:56:49 145.980
SPROUT 25 Sep 01:59:20 02:03:34 73° 77° (ENE) 02:07:46 437.525
M-CUBED/EXP-1 PRIME 25 Sep 02:01:39 02:04:44 37° 106° (ESE) 02:07:57 437.505
POLYITAN 1 25 Sep 02:04:12 02:08:03 33° 282° (WNW) 02:11:55 437.675
EO-79 25 Sep 02:08:18 02:12:00 29° 282° (WNW) 02:15:42 145.935-145.965
VELOX 1 25 Sep 02:08:38 02:13:02 65° 78° (ENE) 02:17:23 145.980
BUGSAT 1 25 Sep 02:19:16 02:23:21 48° 102° (ESE) 02:27:27 437.445
QB50P2 25 Sep 02:23:18 02:26:00 17° 282° (WNW) 02:28:44 145.880/145.840
SO-50 25 Sep 02:24:05 02:27:58 26° 248° (WSW) 02:31:56 436.795
O/OREOS (USA 219) 25 Sep 02:25:43 02:30:09 69° 104° (ESE) 02:34:36 437.305
Gurwin Techsat 1B 25 Sep 02:42:35 02:46:39 23° 103° (ESE) 02:50:44 435.225
SRMSAT 25 Sep 02:45:03 02:48:39 16° 14° (NNE) 02:52:15 437.500
Oscar 19 25 Sep 02:47:34 02:52:24 43° 103° (ESE) 02:57:14 437.125/150
YUBILEINY 25 Sep 02:58:37 03:03:46 17° 267° (W) 03:08:58 435.215
UKube-1 25 Sep 03:04:39 03:08:39 37° 78° (ENE) 03:12:37 .
50 SAT 25 Sep 03:05:36 03:08:53 61° 258° (WSW) 03:12:09 437.505
JUGNU 25 Sep 03:05:58 03:11:51 81° 21° (NNE) 03:17:43 437.505
DX 1 25 Sep 03:13:41 03:18:04 85° 260° (W) 03:22:24 434.975-435.025
PCSat 25 Sep 03:16:15 03:20:51 29° 251° (WSW) 03:25:29 145.827
AO-7 25 Sep 04:13:35 04:20:27 29° 107° (ESE) 04:27:20 .
Gurwin Techsat 1B 25 Sep 04:22:12 04:26:19 23° 283° (WNW) 04:30:27 435.225
BEESAT 25 Sep 04:23:09 04:27:16 30° 77° (ENE) 04:31:23 436.000
Oscar 19 25 Sep 04:30:17 04:31:26 11° 283° (WNW) 04:32:34 437.125/150
SRMSAT 25 Sep 04:32:50 04:38:15 37° 20° (NNE) 04:43:43 437.500
MOZHAYETS 4 25 Sep 04:43:09 04:47:39 56° 78° (ENE) 04:52:09
RS-15 25 Sep 04:51:40 05:03:17 64° 110° (ESE) 05:15:19 29.354- 29.394
JUGNU 25 Sep 04:55:34 05:00:55 36° 200° (SSW) 05:06:16 437.505
CUBESAT XI-V 25 Sep 05:13:59 05:17:20 19° 78° (ENE) 05:20:41 437.345
Tancredo 1 25 Sep 05:21:48 05:24:24 55° 54° (NE) 05:27:02 437.200
ITUPSAT 1 25 Sep 05:24:34 05:29:02 41° 258° (WSW) 05:33:30 437.325
ITAMSAT 1 25 Sep 05:33:57 05:39:03 59° 283° (WNW) 05:44:13 435.822/435.867
BEESAT 25 Sep 06:02:25 06:04:46 14° 257° (WSW) 06:07:06 436.000
AO-7 25 Sep 06:05:26 06:12:50 37° 286° (WNW) 06:20:19 .
SRMSAT 25 Sep 06:21:33 06:27:30 81° 201° (SSW) 06:33:29 437.500
ISS 25 Sep 06:21:53 06:24:29 22° 54° (NE) 06:27:05 437.550
KKS-1 25 Sep 06:30:29 06:34:50 55° 78° (ENE) 06:39:09 437.445
BEESAT 3 25 Sep 06:36:23 06:39:27 22° 68° (ENE) 06:42:28 437.485
JUGNU 25 Sep 06:46:51 06:50:22 16° 193° (SSW) 06:53:54 437.505
DOVE 4 25 Sep 06:50:27 06:55:01 74° 101° (ESE) 06:59:55 437.250
CUBESAT XI-V 25 Sep 06:50:55 06:54:25 21° 258° (WSW) 06:57:55 437.345
STARS 25 Sep 06:51:25 06:55:18 32° 78° (ENE) 06:59:10 437.465
XW-2D 25 Sep 06:57:05 06:58:59 14° 101° (ESE) 07:00:54 145.860 - 145.880
nSIGHT-1 25 Sep 06:58:01 07:01:15 77° 235° (SW) 07:04:29 .
RS-15 25 Sep 07:06:49 07:15:29 23° 293° (WNW) 07:24:25 29.354- 29.394
XW-2F 25 Sep 07:07:41 07:10:14 18° 101° (ESE) 07:12:48 145.980 - 146.000
XW-2B 25 Sep 07:08:37 07:11:23 20° 101° (ESE) 07:14:09 145.730 - 145.750
NUDT-PHONESAT 25 Sep 07:25:54 07:28:54 24° 101° (ESE) 07:31:53 437.300
XW-2C 25 Sep 07:29:12 07:32:47 44° 101° (E) 07:36:22 145.795 - 145.815
CUTE-I 25 Sep 07:31:52 07:36:50 40° 103° (ESE) 07:41:51 437.470
LilacSat-2 25 Sep 07:43:00 07:46:46 87° 100° (E) 07:50:33 437.200
AO-85 25 Sep 07:48:08 07:53:05 66° 69° (ENE) 07:58:18 145.980
HO-68 25 Sep 07:54:03 07:59:34 24° 105° (ESE) 08:05:06 435.675
KAITUO 1B 25 Sep 07:55:57 07:59:37 86° 100° (E) 08:03:18 145.475/437.950
ISS 25 Sep 07:59:47 08:00:45 11° 234° (SW) 08:01:45 437.550
SRMSAT 25 Sep 08:11:38 08:16:49 30° 199° (SSW) 08:22:01 437.500
BEESAT 3 25 Sep 08:15:47 08:16:43 11° 248° (WSW) 08:17:38 437.485
BEESAT 2 25 Sep 08:23:45 08:27:26 38° 248° (WSW) 08:31:05 435.950
XW-2D 25 Sep 08:30:26 08:32:54 17° 281° (WNW) 08:35:21 145.860 - 145.880
STARS 25 Sep 08:31:06 08:31:21 10° 257° (WSW) 08:31:36 437.465
CUTE 1.7 + AOD 2 25 Sep 08:34:07 08:38:10 49° 102° (ESE) 08:42:13 437.475
XW-2F 25 Sep 08:42:26 08:44:05 13° 281° (WNW) 08:45:44 145.980 - 146.000
XW-2B 25 Sep 08:44:01 08:45:17 11° 281° (WNW) 08:46:32 145.730 - 145.750
XW-2A 25 Sep 08:51:11 08:54:00 24° 101° (ESE) 08:56:47 145.665 - 145.685
STRAND 1 25 Sep 08:53:22 08:58:22 58° 78° (ENE) 09:03:21 437.568
CUTE-I 25 Sep 09:14:16 09:16:36 13° 283° (WNW) 09:18:56 437.470
CUBEBUG 2 25 Sep 09:18:00 09:22:45 81° 282° (WNW) 09:27:27 437.445
UWE-3 25 Sep 09:22:00 09:26:32 56° 101° (E) 09:31:01 435.000/436.395/437.385
SEEDS 25 Sep 09:39:07 09:42:47 31° 281° (WNW) 09:46:29 437.485
HO-68 25 Sep 09:40:29 09:46:57 37° 285° (WNW) 09:53:27 435.675
